Daviess Cnty AP, Washington,, IN

8:24 AM EST on December 08, 2019 (GMT -0500)
Daviess County

Weather History for KDCY - October, 2019

Change the Weather History Date:

Friday, October 25, 2019

  Actual Average (KLWV) Record (KLWV)
Temperature  
Mean Temperature 52 °F -  
Max Temperature 56 °F 63 °F 80 °F (2012)
Min Temperature 47 °F 42 °F 27 °F (2013)
Degree Days  
Heating Degree Days 14    
Growing Degree Days 2 (Base 50)    
Moisture  
Dew Point 46 °F    
Average Humidity 83    
Maximum Humidity 99    
Minimum Humidity 69    
Precipitation  
Precipitation 0.00 in - - ()
Sea Level Pressure  
Sea Level Pressure 30.25 in    
Wind  
Wind Speed 4 mph (North)    
Max Wind Speed 9 mph    
Max Gust Speed -    
Visibility 10 miles    
Events      
Averages and records for this station are not official NWS values.
T = Trace of Precipitation, MM = Missing Value Source: NWS Daily Summary

Daily Weather History Graph

Daily Weather History Graph

Search for Another Location

Airport or City:

Astronomy

Oct. 25, 2019 Rise Set
Actual Time 8:07 AM EDT 6:56 PM EDT
Civil Twilight 7:40 AM EDT 7:24 PM EDT
Nautical Twilight 7:09 AM EDT 7:55 PM EDT
Astronomical Twilight 6:38 AM EDT 8:25 PM EDT
Moon 4:52 AM EDT (10/25) 5:56 PM EDT (10/25)
Length of Visible Light 11h 43m
Length of Day
10h 49m
Waning Crescent, 9% of the Moon is Illuminated
Oct 25
Waning Crescent
Oct 27
New
Nov 4
First Quarter
Nov 12
Full
Nov 19
Last Quarter

Hourly Weather History & Observations

Time (EDT) Temp. Dew Point Humidity Pressure Visibility Wind Dir Wind Speed Gust Speed Precip Events Conditions
12:15 AM 50.9 °F 45.5 °F 82% 30.28 in 10.0 mi NE 3.5 mph - N/A   Overcast
12:35 AM 50.4 °F 46.4 °F 86% 30.29 in 10.0 mi NNW 4.6 mph - N/A   Overcast
12:55 AM 50.4 °F 45.7 °F 84% 30.29 in 10.0 mi NNW 4.6 mph - N/A   Overcast
1:15 AM 50.0 °F 45.9 °F 86% 30.29 in 10.0 mi Calm Calm - N/A   Mostly Cloudy
1:55 AM 49.3 °F 45.7 °F 87% 30.28 in 10.0 mi NNW 5.8 mph - N/A   Mostly Cloudy
2:15 AM 49.1 °F 45.5 °F 87% 30.28 in 10.0 mi NNW 4.6 mph - N/A   Overcast
2:35 AM 48.6 °F 45.7 °F 90% 30.28 in 10.0 mi NNW 5.8 mph - N/A   Overcast
2:55 AM 48.6 °F 46.0 °F 91% 30.29 in 10.0 mi NNW 4.6 mph - N/A   Overcast
3:15 AM 49.1 °F 45.7 °F 88% 30.30 in 10.0 mi NW 5.8 mph - N/A   Overcast
3:35 AM 49.1 °F 45.7 °F 88% 30.30 in 10.0 mi NNW 4.6 mph - N/A   Overcast
3:55 AM 48.6 °F 46.4 °F 92% 30.29 in 10.0 mi NNW 4.6 mph - N/A   Overcast
4:15 AM 49.1 °F 45.3 °F 87% 30.28 in 10.0 mi North 5.8 mph - N/A   Overcast
4:35 AM 49.1 °F 45.1 °F 86% 30.29 in 10.0 mi North 5.8 mph - N/A   Overcast
4:55 AM 49.1 °F 45.1 °F 86% 30.29 in 10.0 mi North 5.8 mph - N/A   Overcast
5:15 AM 48.9 °F 44.8 °F 86% 30.28 in 10.0 mi NNE 5.8 mph - N/A   Overcast
5:35 AM 48.7 °F 45.0 °F 87% 30.29 in 10.0 mi North 5.8 mph - N/A   Overcast
5:55 AM 48.6 °F 45.1 °F 88% 30.28 in 10.0 mi North 5.8 mph - N/A   Overcast
6:15 AM 48.4 °F 45.1 °F 89% 30.28 in 10.0 mi Calm Calm - N/A   Overcast
6:35 AM 48.2 °F 45.5 °F 90% 30.27 in 10.0 mi NNE 3.5 mph - N/A   Mostly Cloudy
6:55 AM 48.2 °F 45.5 °F 90% 30.28 in 10.0 mi Calm Calm - N/A   Mostly Cloudy
7:15 AM 48.0 °F 45.5 °F 91% 30.28 in 10.0 mi NNW 3.5 mph - N/A   Overcast
7:30 AM 47.8 °F 45.9 °F 93% 30.28 in 10.0 mi NNW 3.5 mph - N/A   Overcast
7:55 AM 47.7 °F 47.3 °F 99% 30.29 in 10.0 mi NW 3.5 mph - N/A   Overcast
8:15 AM 47.7 °F 47.3 °F 99% 30.29 in 10.0 mi Calm Calm - N/A   Overcast
8:35 AM 47.8 °F 47.1 °F 97% 30.29 in 10.0 mi North 3.5 mph - N/A   Overcast
8:55 AM 48.0 °F 47.3 °F 97% 30.28 in 10.0 mi Calm Calm - N/A   Overcast
9:15 AM 48.4 °F 47.5 °F 97% 30.29 in 10.0 mi North 6.9 mph - N/A   Mostly Cloudy
9:30 AM 48.7 °F 46.8 °F 93% 30.29 in 10.0 mi Calm Calm - N/A   Overcast
9:55 AM 50.0 °F 46.4 °F 87% 30.31 in 10.0 mi North 3.5 mph - N/A   Overcast
10:15 AM 50.9 °F 45.5 °F 82% 30.30 in 10.0 mi NNE 4.6 mph - N/A   Overcast
10:35 AM 51.4 °F 45.1 °F 79% 30.30 in 10.0 mi NE 4.6 mph - N/A   Overcast
10:55 AM 52.0 °F 45.3 °F 78% 30.30 in 10.0 mi NNE 4.6 mph - N/A   Overcast
11:15 AM 52.0 °F 45.3 °F 78% 30.29 in 10.0 mi NNE 3.5 mph - N/A   Overcast
11:35 AM 52.3 °F 45.5 °F 78% 30.30 in 10.0 mi North 5.8 mph - N/A   Overcast
11:55 AM 52.7 °F 45.5 °F 76% 30.29 in 10.0 mi North 3.5 mph - N/A   Overcast
12:15 PM 52.9 °F 45.5 °F 76% 30.28 in 10.0 mi North 6.9 mph - N/A   Overcast
12:35 PM 53.1 °F 45.7 °F 76% 30.28 in 10.0 mi North 4.6 mph - N/A   Overcast
12:55 PM 53.6 °F 46.4 °F 77% 30.28 in 10.0 mi North 9.2 mph - N/A   Overcast
1:15 PM 53.2 °F 46.2 °F 77% 30.28 in 10.0 mi NNW 5.8 mph - N/A   Overcast
1:35 PM 53.4 °F 46.0 °F 76% 30.26 in 10.0 mi North 6.9 mph - N/A   Overcast
1:55 PM 54.0 °F 46.4 °F 76% 30.25 in 10.0 mi North 6.9 mph - N/A   Overcast
2:15 PM 54.3 °F 46.4 °F 75% 30.25 in 10.0 mi NNE 4.6 mph - N/A   Overcast
2:35 PM 54.5 °F 46.0 °F 73% 30.23 in 10.0 mi NNE 3.5 mph - N/A   Overcast
2:55 PM 54.7 °F 46.2 °F 73% 30.23 in 10.0 mi NNE 3.5 mph - N/A   Overcast
3:15 PM 55.4 °F 46.4 °F 72% 30.23 in 10.0 mi North 5.8 mph - N/A   Overcast
3:35 PM 55.6 °F 46.4 °F 71% 30.21 in 10.0 mi North 6.9 mph - N/A   Overcast
4:15 PM 56.3 °F 46.4 °F 69% 30.20 in 10.0 mi NNE 5.8 mph - N/A   Overcast
4:35 PM 56.7 °F 46.6 °F 69% 30.21 in 10.0 mi North 6.9 mph - N/A   Overcast
4:55 PM 56.7 °F 46.6 °F 69% 30.21 in 10.0 mi NE 4.6 mph - N/A   Overcast
5:15 PM 56.7 °F 46.6 °F 69% 30.21 in 10.0 mi NE 4.6 mph - N/A   Overcast
5:35 PM 56.5 °F 46.9 °F 70% 30.20 in 10.0 mi NE 4.6 mph - N/A   Mostly Cloudy
5:55 PM 56.3 °F 46.9 °F 71% 30.20 in 10.0 mi NE 4.6 mph - N/A   Scattered Clouds
6:15 PM 55.9 °F 47.1 °F 72% 30.20 in 10.0 mi North 6.9 mph - N/A   Clear
6:35 PM 54.7 °F 47.3 °F 76% 30.20 in 10.0 mi North 4.6 mph - N/A   Clear
6:55 PM 54.5 °F 47.3 °F 77% 30.20 in 10.0 mi Calm Calm - N/A   Clear
7:15 PM 53.8 °F 47.3 °F 79% 30.21 in 10.0 mi North 3.5 mph - N/A   Clear
7:35 PM 52.7 °F 47.3 °F 82% 30.20 in 10.0 mi Calm Calm - N/A   Clear
7:55 PM 52.7 °F 47.5 °F 82% 30.20 in 10.0 mi Calm Calm - N/A   Clear
8:15 PM 50.5 °F 47.8 °F 90% 30.20 in 10.0 mi North 4.6 mph - N/A   Clear
8:35 PM 50.2 °F 47.5 °F 90% 30.20 in 10.0 mi NNE 4.6 mph - N/A   Clear
8:55 PM 51.4 °F 48.2 °F 89% 30.20 in 10.0 mi North 5.8 mph - N/A   Clear
9:10 PM 51.8 °F 47.3 °F 85% 30.19 in 10.0 mi NE 3.5 mph - N/A   Clear
9:35 PM 51.1 °F 47.3 °F 87% 30.19 in 10.0 mi NNE 4.6 mph - N/A   Clear
9:55 PM 51.1 °F 46.8 °F 85% 30.19 in 10.0 mi Calm Calm - N/A   Clear
10:10 PM 50.7 °F 46.8 °F 86% 30.20 in 10.0 mi North 4.6 mph - N/A   Clear
10:35 PM 50.5 °F 46.8 °F 87% 30.18 in 10.0 mi ENE 3.5 mph - N/A   Clear
10:55 PM 50.4 °F 47.1 °F 89% 30.18 in 10.0 mi NE 3.5 mph - N/A   Clear
11:15 PM 49.6 °F 48.7 °F 97% 30.17 in 10.0 mi East 3.5 mph - N/A   Clear
11:35 PM 50.9 °F 47.5 °F 88% 30.16 in 10.0 mi ENE 4.6 mph - N/A   Clear